Location: Camp Crooked Creek
(37.9149°N, 85.6607°W)
Time: 17:22:38
(UTC-04:00)

Daily predictions for brighter satellites

Satellite Brightness Start Highest point End
(mag) Time Altitude Azimuth Time Altitude Azimuth Time Altitude Azimuth
Cosmos 1125 Rocket 4.4 21:14:52 10° NNW 21:19:59 51° WSW 21:25:02 10° S
H-2A R/B 3.8 21:16:48 10° S 21:20:23 46° W 21:23:58 10° NNW
Cosmos 1340 4.0 21:18:49 10° SSW 21:22:28 46° WNW 21:26:09 10° N
Helios 1A 3.5 21:21:10 10° SE 21:25:12 45° ENE 21:29:13 10° N
Resurs 1-3 3.9 21:22:10 10° S 21:26:32 73° WSW 21:30:56 10° NNW
PSLV R/B 3.6 21:24:15 10° W 21:27:21 60° NNW 21:30:27 10° ENE
Resurs 01 Rocket 2.3 21:26:03 10° S 21:30:24 57° W 21:34:47 10° NNW
Cosmos 292 Rocket 3.8 21:27:39 10° S 21:32:25 64° ESE 21:37:12 10° NNE
Envisat 3.1 21:27:45 10° SSE 21:32:44 60° ENE 21:37:44 10° N
Cosmos 1544 Rocket 3.7 21:29:21 10° N 21:33:36 55° E 21:37:50 10° SSE
Cosmos 724 4.4 21:27:51 10° NNW 21:33:55 87° WSW 21:39:46 10° SSE
Iridium 4 Rocket 3.5 21:34:01 10° N 21:39:00 88° E 21:44:26 10° S
Cosmos 1666 4.5 21:37:49 10° NNE 21:40:14 16° ENE 21:42:13 12° ESE
ASTEX 1 4.3 21:43:57 12° SE 21:47:51 30° ENE 21:52:06 10° NNE
RESURS DK-1 3.2 21:47:59 10° SW 21:52:00 53° WNW 21:56:05 10° NNE
Cosmos 1538 Rocket 4.3 21:47:59 10° SSW 21:53:07 71° WNW 21:58:18 10° NNE
Aureole 3 Rocket 4.2 21:47:33 10° SSE 21:54:29 49° E 21:59:30 10° NNE
NOSS 2-2 (E) 3.3 21:52:35 10° SSW 21:56:32 75° ESE 22:01:01 10° NE
Okean 1 4.0 21:53:56 10° SSW 21:57:49 56° W 22:01:44 10° N
Cosmos 1455 Rocket 3.0 21:54:44 10° N 21:59:08 87° W 22:03:27 10° S
Spot 1 4.3 21:56:29 10° S 22:01:08 75° WSW 22:05:33 10° NNW
Cosmos 2369 Rocket 3.6 21:56:21 10° NW 22:01:29 36° WSW 22:06:36 10° S
Cosmos 1975 3.0 21:57:34 10° N 22:01:37 74° W 22:05:41 10° S
Cosmos 923 Rocket 4.1 21:56:28 10° S 22:01:41 60° ESE 22:06:55 10° NNE
Cosmos 405 Rocket 2.8 21:59:12 10° S 22:02:49 52° E 22:06:31 10° NNE
Cosmos 1346 3.4 22:03:17 25° SE 22:04:22 37° E 22:06:58 10° NNE
Helios 1B rocket 3.1 22:02:04 10° N 22:06:08 57° WNW 22:10:10 10° SSW
Cosmos 1656 Rocket 3.9 22:01:07 10° NNW 22:06:28 54° ENE 22:10:12 20° SE
Tiangong 2 1.8 22:04:45 10° SW 22:07:38 32° SSE 22:08:38 26° ESE
YAOGAN 6 2.5 22:05:25 19° SSE 22:07:49 68° ENE 22:11:19 10° N
SAR-Lupe-4 4.1 22:06:12 10° S 22:09:39 57° W 22:13:12 10° NNW
Meteor 1-13 Rocket 4.3 22:05:07 10° S 22:11:02 76° E 22:16:58 10° NNE
ISS -1.4 22:09:49 10° S 22:09:53 10° S 22:09:53 10° S
Cosmos 1939 Rocket 3.3 22:09:19 10° S 22:13:07 57° W 22:16:57 10° NNW
COSMOS 2455 3.0 22:07:12 10° NNW 22:13:13 75° WSW 22:18:02 16° SSE
Meteor 1-29 3.9 22:10:42 10° N 22:13:58 48° WNW 22:17:13 10° SSW
Cosmos 1441 Rocket 3.7 22:15:21 26° SE 22:16:52 38° E 22:20:22 10° NNE
Cosmos 1943 Rocket 3.0 22:15:05 10° NW 22:20:27 48° WSW 22:25:31 11° S
Cosmos 1437 3.7 22:17:41 10° SSW 22:20:47 46° WNW 22:23:54 10° N
Cosmos 1818 4.2 22:15:45 10° SW 22:21:06 58° WNW 22:26:29 10° NNE
OAO 2 Rocket 3.4 22:17:31 10° WSW 22:22:20 53° S 22:25:27 21° E
Cosmos 2327 Rocket 4.5 22:16:28 10° N 22:22:39 70° E 22:27:15 19° SSE
ERS-1 Rocket 2.9 22:21:30 20° SSE 22:24:59 81° ENE 22:30:01 10° N
H-2A R/B 3.2 22:24:04 21° ESE 22:25:59 26° ENE 22:30:05 10° NNE
NOAA 11 4.2 22:22:31 22° SSE 22:26:00 64° ENE 22:31:23 10° N
COSMOS 2406 3.2 22:20:49 10° SSW 22:26:33 86° ESE 22:32:18 10° NNE
Okean 1-7 Rocket 3.8 22:25:23 26° SSE 22:27:33 50° E 22:31:53 10° NNE
USA 267 4.3 22:28:00 10° ENE 22:32:18 22° ESE 22:32:18 22° ESE
Cosmos 2112 Rocket 3.9 22:29:22 10° SSW 22:34:35 78° ESE 22:39:48 10° NNE
ARGOS 3.4 22:32:24 28° SE 22:35:08 55° ENE 22:40:25 10° N
CZ-3B Rocket 4.3 22:34:23 10° SSW 22:53:53 - ESE 22:35:28 13° S
Cosmos 2082 Rocket 4.0 22:43:04 15° E 22:43:04 15° E 22:45:10 10° ENE
DNEPR-1 R/B 3.8 22:38:10 10° NNW 22:42:22 56° ENE 22:43:52 37° ESE
Cosmos 1743 3.6 22:39:11 10° NNW 22:42:55 46° W 22:45:14 20° SSW
Cosmos 1892 Rocket 4.4 22:44:34 31° E 22:44:46 31° E 22:48:42 10° NNE
Intercosmos 24 3.8 22:41:53 10° N 22:45:50 56° E 22:46:21 50° ESE
Okean 2 3.4 22:48:37 49° SE 22:49:21 57° E 22:53:22 10° NNE
CENTAUR R/B 3.2 22:42:42 10° NW 22:50:43 78° WSW 22:55:42 28° SSE
Cosmos 2184 Rocket 4.3 22:45:27 10° NNW 22:51:44 65° W 22:56:27 18° S
SL-27 R/B 2.6 22:50:51 31° SSW 22:52:28 74° WNW 22:56:08 10° NNE
Cosmos 2074 Rocket 4.4 22:46:54 10° NNW 22:53:01 60° W 22:57:50 17° SSW
USA 245 3.0 22:54:50 54° N 22:54:50 54° N 22:56:55 10° N
Cosmos 192 4.3 22:50:22 15° SSW 22:54:30 83° WNW 22:59:26 10° NNE
ASTRO E2 3.9 22:51:30 10° WSW 22:54:11 27° SSW 22:54:11 27° SSW
Aureole 1 Rocket 3.2 22:53:35 17° SW 22:56:01 48° WNW 22:59:01 10° N
YAOGAN 11 4.0 22:54:50 43° S 22:56:12 81° WSW 23:00:31 10° NNW
Cosmos 1610 Rocket 4.5 22:50:16 10° N 22:56:36 85° W 23:00:03 28° S
Cosmos 1437 Rocket 3.0 22:53:46 10° N 22:57:29 47° E 22:57:30 47° E
Cosmos 1680 Rocket 4.2 22:53:28 10° SW 22:58:34 53° WNW 23:03:41 10° N
Cosmos 921 Rocket 4.4 22:56:39 10° N 23:00:25 26° ENE 23:00:46 26° ENE
Cosmos 1606 Rocket 3.6 22:57:02 10° N 23:01:17 54° E 23:01:42 52° ESE
Cosmos 2056 Rocket 4.0 22:58:16 10° N 23:03:14 44° ENE 23:04:18 38° E
MetOp-B 4.4 23:01:03 29° S 23:03:44 63° WSW 23:09:03 10° NNW
Cosmos 405 3.0 23:00:41 10° NNW 23:04:15 71° W 23:04:29 67° SW
PSLV R/B 3.9 23:01:37 10° WNW 23:04:39 46° N 23:04:42 46° N
Cosmos 1726 Rocket 3.5 23:08:22 10° N 23:12:39 61° E 23:12:47 60° E
SPOT 5 3.0 23:13:45 44° SSW 23:14:47 57° W 23:19:03 10° NNW
Cosmos 1666 4.5 23:12:45 10° NNW 23:15:54 26° W 23:17:11 21° WSW
Cosmos 2058 Rocket 3.4 23:12:17 10° N 23:16:28 48° ENE 23:16:28 48° ENE
SPOT 1/Viking Rocket 3.5 23:15:21 50° S 23:16:47 85° WSW 23:21:58 10° NNW
Landsat 7 3.8 23:17:21 59° ESE 23:17:55 65° ENE 23:22:38 10° N
SL-19 R/B 4.4 23:14:05 10° NNE 23:19:15 46° E 23:19:21 46° ESE
CARTOSAT-1 4.1 23:19:44 44° ENE 23:19:44 44° ENE 23:23:44 10° N
SL-08 RB Rocket 4.0 23:20:54 49° SSW 23:21:46 60° W 23:26:12 10° NNW
Cosmos 962 Rocket 4.4 23:16:19 10° N 23:22:36 87° E 23:24:34 47° S
Cosmos 1025 Rocket 4.2 23:22:45 24° SW 23:24:42 38° WNW 23:28:42 10° N
Cosmos 1833 Rocket 3.5 23:28:30 35° E 23:28:30 35° E 23:32:45 10° NE
Cosmos 1066 Rocket 4.3 23:28:36 52° ESE 23:28:51 52° E 23:34:14 10° NNE
Terra 1.8 23:32:53 64° E 23:32:59 64° ENE 23:37:42 10° N
Cosmos 1452 Rocket 4.4 23:30:43 10° N 23:35:33 35° ENE 23:35:54 35° ENE
Cosmos 1656 4.4 23:30:32 10° N 23:35:34 37° ENE 23:36:13 35° ENE
SL-8 Rocket 3.9 23:35:11 10° N 23:41:27 75° E 23:42:35 60° SE
Cosmos 1371 Rocket 4.2 23:37:07 10° NNW 23:42:21 59° WSW 23:43:04 54° SW
H-2A R/B 2.2 23:45:08 77° NNE 23:45:08 77° NNE 23:49:24 10° NNW
Cosmos 2366 rocket 4.0 23:38:51 10° N 23:44:55 57° E 23:45:36 54° ESE
